Time,TemperatureF,DewpointF,PressureIn,WindDirection,WindDirectionDegrees,WindSpeedMPH,WindSpeedGustMPH,Humidity,HourlyPrecipIn,Conditions,Clouds,dailyrainin,SoftwareType,DateUTC
2013-07-09 00:04:00,77.8,72.2,30.15,SW,216,4.0,7.0,83,0.00,,,0.00,Wunderground v.1.15,2013-07-09 04:04:00,
2013-07-09 00:09:00,77.8,72.2,30.15,SW,222,5.0,5.0,83,0.00,,,0.00,Wunderground v.1.15,2013-07-09 04:09:00,
2013-07-09 00:14:00,77.8,71.9,30.15,SW,224,4.0,5.0,82,0.00,,,0.00,Wunderground v.1.15,2013-07-09 04:14:00,
2013-07-09 00:19:00,77.8,71.9,30.15,SSW,208,4.0,6.0,82,0.00,,,0.00,Wunderground v.1.15,2013-07-09 04:19:00,
2013-07-09 00:24:00,77.9,72.0,30.15,SW,223,4.0,6.0,82,0.00,,,0.00,Wunderground v.1.15,2013-07-09 04:24:00,
2013-07-09 00:29:00,78.0,72.1,30.15,SW,230,5.0,7.0,82,0.00,,,0.00,Wunderground v.1.15,2013-07-09 04:29:00,
2013-07-09 00:35:00,78.0,72.1,30.15,SSW,201,6.0,7.0,82,0.00,,,0.00,Wunderground v.1.15,2013-07-09 04:35:00,
2013-07-09 00:44:00,78.1,72.2,30.15,SW,218,6.0,6.0,82,0.00,,,0.00,Wunderground v.1.15,2013-07-09 04:44:00,
2013-07-09 00:49:00,78.0,72.1,30.15,SW,232,5.0,5.0,82,0.00,,,0.00,Wunderground v.1.15,2013-07-09 04:49:00,
2013-07-09 00:59:00,77.8,71.9,30.15,SW,227,4.0,4.0,82,0.00,,,0.00,Wunderground v.1.15,2013-07-09 04:59:00,
2013-07-09 01:09:00,77.6,72.0,30.14,WSW,251,2.0,2.0,83,0.00,,,0.00,Wunderground v.1.15,2013-07-09 05:09:00,
2013-07-09 01:20:00,77.2,72.0,30.14,WSW,251,2.0,2.0,84,0.00,,,0.00,Wunderground v.1.15,2013-07-09 05:20:00,
2013-07-09 01:30:00,76.9,72.0,30.14,WSW,251,2.0,2.0,85,0.00,,,0.00,Wunderground v.1.15,2013-07-09 05:30:00,
2013-07-09 01:39:00,76.8,72.3,30.14,SW,234,2.0,2.0,86,0.00,,,0.00,Wunderground v.1.15,2013-07-09 05:39:00,
2013-07-09 01:44:00,76.6,72.1,30.14,SW,234,1.0,2.0,86,0.00,,,0.00,Wunderground v.1.15,2013-07-09 05:44:00,
2013-07-09 01:54:00,76.6,72.1,30.14,SW,234,2.0,2.0,86,0.00,,,0.00,Wunderground v.1.15,2013-07-09 05:54:00,
2013-07-09 02:04:00,76.6,72.4,30.14,SW,234,2.0,2.0,87,0.00,,,0.00,Wunderground v.1.15,2013-07-09 06:04:00,
2013-07-09 02:15:00,76.5,72.3,30.14,SW,234,2.0,3.0,87,0.00,,,0.00,Wunderground v.1.15,2013-07-09 06:15:00,
2013-07-09 02:24:00,76.6,72.1,30.14,SW,233,3.0,3.0,86,0.00,,,0.00,Wunderground v.1.15,2013-07-09 06:24:00,
2013-07-09 02:29:00,76.6,72.1,30.14,SW,229,3.0,4.0,86,0.00,,,0.00,Wunderground v.1.15,2013-07-09 06:29:00,
2013-07-09 02:39:00,76.5,72.3,30.13,SSW,194,2.0,4.0,87,0.00,,,0.00,Wunderground v.1.15,2013-07-09 06:39:00,
2013-07-09 02:49:00,76.4,72.2,30.13,SW,220,3.0,5.0,87,0.00,,,0.00,Wunderground v.1.15,2013-07-09 06:49:00,
2013-07-09 02:59:00,76.3,72.1,30.13,SSW,212,4.0,4.0,87,0.00,,,0.00,Wunderground v.1.15,2013-07-09 06:59:00,
2013-07-09 03:10:00,76.1,71.9,30.13,SSW,209,4.0,5.0,87,0.00,,,0.00,Wunderground v.1.15,2013-07-09 07:10:00,
2013-07-09 03:19:00,75.9,71.8,30.13,SW,230,4.0,4.0,87,0.00,,,0.00,Wunderground v.1.15,2013-07-09 07:19:00,
2013-07-09 03:24:00,75.9,72.1,30.13,SW,228,3.0,4.0,88,0.00,,,0.00,Wunderground v.1.15,2013-07-09 07:24:00,
2013-07-09 03:30:00,75.9,72.1,30.13,SW,234,3.0,3.0,88,0.00,,,0.00,Wunderground v.1.15,2013-07-09 07:30:00,
2013-07-09 03:40:00,75.8,72.0,30.13,SW,225,3.0,3.0,88,0.00,,,0.00,Wunderground v.1.15,2013-07-09 07:40:00,
2013-07-09 03:54:00,75.7,71.9,30.12,SW,229,4.0,4.0,88,0.00,,,0.00,Wunderground v.1.15,2013-07-09 07:54:00,
2013-07-09 04:04:00,75.6,71.8,30.12,SW,223,3.0,4.0,88,0.00,,,0.00,Wunderground v.1.15,2013-07-09 08:04:00,
2013-07-09 04:09:00,75.6,71.8,30.12,SW,226,3.0,3.0,88,0.00,,,0.00,Wunderground v.1.15,2013-07-09 08:09:00,
2013-07-09 04:19:00,75.6,71.8,30.12,WSW,242,3.0,3.0,88,0.00,,,0.00,Wunderground v.1.15,2013-07-09 08:19:00,
2013-07-09 04:29:00,75.5,71.7,30.12,WSW,242,2.0,3.0,88,0.00,,,0.00,Wunderground v.1.15,2013-07-09 08:29:00,
2013-07-09 04:40:00,75.5,71.7,30.12,WSW,242,2.0,2.0,88,0.00,,,0.00,Wunderground v.1.15,2013-07-09 08:40:00,
2013-07-09 04:50:00,75.4,71.6,30.12,WSW,242,2.0,3.0,88,0.00,,,0.00,Wunderground v.1.15,2013-07-09 08:50:00,
2013-07-09 04:59:00,75.2,71.4,30.12,WSW,242,2.0,2.0,88,0.00,,,0.00,Wunderground v.1.15,2013-07-09 08:59:00,
2013-07-09 05:04:00,75.2,71.7,30.12,WSW,242,1.0,2.0,89,0.00,,,0.00,Wunderground v.1.15,2013-07-09 09:04:00,
2013-07-09 05:15:00,75.1,71.6,30.13,West,263,1.0,1.0,89,0.00,,,0.00,Wunderground v.1.15,2013-07-09 09:15:00,
2013-07-09 05:24:00,74.9,71.4,30.13,West,278,2.0,3.0,89,0.00,,,0.00,Wunderground v.1.15,2013-07-09 09:24:00,
2013-07-09 05:34:00,74.8,71.7,30.13,West,278,1.0,1.0,90,0.00,,,0.00,Wunderground v.1.15,2013-07-09 09:34:00,
2013-07-09 05:45:00,74.7,71.6,30.13,West,278,1.0,2.0,90,0.00,,,0.00,Wunderground v.1.15,2013-07-09 09:45:00,
2013-07-09 05:54:00,74.6,71.5,30.13,West,278,1.0,2.0,90,0.00,,,0.00,Wunderground v.1.15,2013-07-09 09:54:00,
2013-07-09 05:59:00,74.5,71.4,30.13,West,278,2.0,2.0,90,0.00,,,0.00,Wunderground v.1.15,2013-07-09 09:59:00,
2013-07-09 06:09:00,74.4,71.3,30.13,West,278,1.0,2.0,90,0.00,,,0.00,Wunderground v.1.15,2013-07-09 10:09:00,
2013-07-09 06:19:00,74.2,71.1,30.13,West,278,1.0,2.0,90,0.00,,,0.00,Wunderground v.1.15,2013-07-09 10:19:00,
2013-07-09 06:30:00,74.2,71.4,30.13,West,276,1.0,1.0,91,0.00,,,0.00,Wunderground v.1.15,2013-07-09 10:30:00,
2013-07-09 06:40:00,74.1,71.3,30.13,West,274,1.0,1.0,91,0.00,,,0.00,Wunderground v.1.15,2013-07-09 10:40:00,
2013-07-09 06:49:00,74.2,71.4,30.13,West,274,2.0,2.0,91,0.00,,,0.00,Wunderground v.1.15,2013-07-09 10:49:00,
2013-07-09 06:54:00,74.2,71.4,30.13,West,274,1.0,2.0,91,0.00,,,0.00,Wunderground v.1.15,2013-07-09 10:54:00,
2013-07-09 07:04:00,74.4,71.6,30.14,West,274,1.0,2.0,91,0.00,,,0.00,Wunderground v.1.15,2013-07-09 11:04:00,
2013-07-09 07:14:00,74.7,71.6,30.13,West,278,1.0,2.0,90,0.00,,,0.00,Wunderground v.1.15,2013-07-09 11:14:00,
2013-07-09 07:24:00,75.3,71.8,30.14,WSW,240,2.0,2.0,89,0.00,,,0.00,Wunderground v.1.15,2013-07-09 11:24:00,
2013-07-09 07:29:00,75.6,72.1,30.14,WSW,240,2.0,2.0,89,0.00,,,0.00,Wunderground v.1.15,2013-07-09 11:29:00,
2013-07-09 07:39:00,75.9,72.1,30.14,SW,219,2.0,6.0,88,0.00,,,0.00,Wunderground v.1.15,2013-07-09 11:39:00,
2013-07-09 07:49:00,76.2,72.4,30.14,WSW,238,3.0,3.0,88,0.00,,,0.00,Wunderground v.1.15,2013-07-09 11:49:00,
2013-07-09 07:59:00,76.4,72.6,30.15,WSW,244,3.0,3.0,88,0.00,,,0.01,Wunderground v.1.15,2013-07-09 11:59:00,
2013-07-09 08:10:00,76.9,72.7,30.15,WSW,254,3.0,3.0,87,0.00,,,0.01,Wunderground v.1.15,2013-07-09 12:10:00,
2013-07-09 08:19:00,77.6,72.7,30.15,SW,234,3.0,3.0,85,0.00,,,0.01,Wunderground v.1.15,2013-07-09 12:19:00,
2013-07-09 08:24:00,77.9,73.0,30.15,WSW,244,3.0,5.0,85,0.00,,,0.01,Wunderground v.1.15,2013-07-09 12:24:00,
2013-07-09 08:34:00,78.3,73.1,30.15,SW,236,4.0,4.0,84,0.00,,,0.01,Wunderground v.1.15,2013-07-09 12:34:00,
2013-07-09 08:44:00,78.6,73.0,30.15,SSW,212,4.0,6.0,83,0.00,,,0.01,Wunderground v.1.15,2013-07-09 12:44:00,
2013-07-09 08:54:00,79.2,73.6,30.15,SW,226,5.0,5.0,83,0.00,,,0.01,Wunderground v.1.15,2013-07-09 12:54:00,
2013-07-09 09:04:00,79.7,73.7,30.15,WSW,253,3.0,4.0,82,0.00,,,0.01,Wunderground v.1.15,2013-07-09 13:04:00,
2013-07-09 09:14:00,79.7,73.7,30.15,West,269,4.0,4.0,82,0.00,,,0.01,Wunderground v.1.15,2013-07-09 13:14:00,
2013-07-09 09:24:00,80.2,74.2,30.15,WSW,242,3.0,4.0,82,0.00,,,0.01,Wunderground v.1.15,2013-07-09 13:24:00,
2013-07-09 09:34:00,80.7,74.3,30.15,WSW,244,4.0,4.0,81,0.00,,,0.01,Wunderground v.1.15,2013-07-09 13:34:00,
2013-07-09 09:45:00,81.3,74.2,30.16,SW,232,6.0,6.0,79,0.00,,,0.01,Wunderground v.1.15,2013-07-09 13:45:00,
2013-07-09 09:54:00,81.7,74.2,30.15,WSW,246,5.0,6.0,78,0.00,,,0.01,Wunderground v.1.15,2013-07-09 13:54:00,
2013-07-09 09:59:00,81.7,74.2,30.15,SW,228,5.0,5.0,78,0.00,,,0.01,Wunderground v.1.15,2013-07-09 13:59:00,
2013-07-09 10:10:00,82.3,73.6,30.15,WNW,286,5.0,6.0,75,0.00,,,0.01,Wunderground v.1.15,2013-07-09 14:10:00,
2013-07-09 10:20:00,82.3,73.6,30.16,WSW,242,5.0,5.0,75,0.00,,,0.01,Wunderground v.1.15,2013-07-09 14:20:00,
2013-07-09 10:29:00,82.5,73.4,30.16,SW,234,6.0,6.0,74,0.00,,,0.01,Wunderground v.1.15,2013-07-09 14:29:00,
2013-07-09 10:34:00,82.4,73.3,30.16,SW,228,5.0,6.0,74,0.00,,,0.01,Wunderground v.1.15,2013-07-09 14:34:00,
2013-07-09 10:45:00,82.3,73.2,30.16,SW,215,4.0,7.0,74,0.00,,,0.01,Wunderground v.1.15,2013-07-09 14:45:00,
2013-07-09 10:54:00,82.6,73.5,30.16,West,263,5.0,6.0,74,0.00,,,0.01,Wunderground v.1.15,2013-07-09 14:54:00,
2013-07-09 10:59:00,83.0,73.4,30.16,West,264,4.0,4.0,73,0.00,,,0.01,Wunderground v.1.15,2013-07-09 14:59:00,
2013-07-09 11:09:00,83.6,73.2,30.16,WSW,248,5.0,6.0,71,0.00,,,0.01,Wunderground v.1.15,2013-07-09 15:09:00,
2013-07-09 11:20:00,84.1,73.3,30.16,SW,230,5.0,5.0,70,0.00,,,0.01,Wunderground v.1.15,2013-07-09 15:20:00,
2013-07-09 11:30:00,84.8,73.9,30.15,SSW,199,4.0,6.0,70,0.00,,,0.01,Wunderground v.1.15,2013-07-09 15:30:00,
2013-07-09 11:39:00,84.4,73.5,30.15,SSW,208,5.0,7.0,70,0.00,,,0.01,Wunderground v.1.15,2013-07-09 15:39:00,
2013-07-09 11:44:00,84.5,73.6,30.15,SSW,213,5.0,7.0,70,0.00,,,0.01,Wunderground v.1.15,2013-07-09 15:44:00,
2013-07-09 11:54:00,84.1,73.3,30.15,SW,224,6.0,8.0,70,0.00,,,0.01,Wunderground v.1.15,2013-07-09 15:54:00,
2013-07-09 12:05:00,84.3,72.6,30.15,SW,218,6.0,7.0,68,0.00,,,0.01,Wunderground v.1.15,2013-07-09 16:05:00,
2013-07-09 12:14:00,85.6,73.4,30.15,South,171,5.0,6.0,67,0.00,,,0.01,Wunderground v.1.15,2013-07-09 16:14:00,
2013-07-09 12:19:00,85.1,72.9,30.15,WSW,242,5.0,5.0,67,0.00,,,0.01,Wunderground v.1.15,2013-07-09 16:19:00,
2013-07-09 12:30:00,85.2,73.9,30.15,South,186,6.0,6.0,69,0.00,,,0.01,Wunderground v.1.15,2013-07-09 16:30:00,
2013-07-09 12:39:00,86.2,74.0,30.15,SSE,152,6.0,6.0,67,0.00,,,0.01,Wunderground v.1.15,2013-07-09 16:39:00,
2013-07-09 12:44:00,86.1,73.9,30.14,SSE,159,6.0,8.0,67,0.00,,,0.01,Wunderground v.1.15,2013-07-09 16:44:00,
2013-07-09 12:55:00,85.6,73.8,30.14,SE,132,6.0,10.0,68,0.00,,,0.01,Wunderground v.1.15,2013-07-09 16:55:00,
2013-07-09 13:04:00,85.0,74.1,30.14,SW,219,5.0,9.0,70,0.00,,,0.01,Wunderground v.1.15,2013-07-09 17:04:00,
2013-07-09 13:09:00,84.9,73.2,30.14,SSW,201,6.0,7.0,68,0.00,,,0.01,Wunderground v.1.15,2013-07-09 17:09:00,
2013-07-09 13:19:00,85.7,73.5,30.13,SSW,198,6.0,7.0,67,0.00,,,0.01,Wunderground v.1.15,2013-07-09 17:19:00,
2013-07-09 13:29:00,86.1,73.4,30.13,SSE,153,6.0,7.0,66,0.00,,,0.01,Wunderground v.1.15,2013-07-09 17:29:00,
2013-07-09 13:34:00,85.6,73.8,30.13,SSW,201,7.0,7.0,68,0.00,,,0.01,Wunderground v.1.15,2013-07-09 17:34:00,
2013-07-09 13:40:00,85.7,73.9,30.12,South,173,8.0,8.0,68,0.00,,,0.01,Wunderground v.1.15,2013-07-09 17:40:00,
2013-07-09 13:49:00,86.3,74.9,30.13,SSE,160,7.0,7.0,69,0.00,,,0.01,Wunderground v.1.15,2013-07-09 17:49:00,
2013-07-09 13:54:00,86.5,74.7,30.12,South,182,7.0,7.0,68,0.00,,,0.01,Wunderground v.1.15,2013-07-09 17:54:00,
2013-07-09 14:04:00,86.2,74.8,30.12,South,191,8.0,15.0,69,0.00,,,0.01,Wunderground v.1.15,2013-07-09 18:04:00,
2013-07-09 14:14:00,85.9,74.5,30.11,SSW,213,7.0,9.0,69,0.00,,,0.01,Wunderground v.1.15,2013-07-09 18:14:00,
2013-07-09 14:24:00,86.1,74.7,30.12,SW,218,6.0,7.0,69,0.00,,,0.01,Wunderground v.1.15,2013-07-09 18:24:00,
2013-07-09 14:35:00,87.2,73.5,30.11,SSE,155,6.0,10.0,64,0.00,,,0.01,Wunderground v.1.15,2013-07-09 18:35:00,
2013-07-09 14:44:00,87.4,74.6,30.11,SW,228,6.0,6.0,66,0.00,,,0.01,Wunderground v.1.15,2013-07-09 18:44:00,
2013-07-09 14:50:00,86.9,72.8,30.10,SW,223,5.0,8.0,63,0.00,,,0.01,Wunderground v.1.15,2013-07-09 18:50:00,
2013-07-09 14:59:00,88.0,74.3,30.10,South,178,5.0,6.0,64,0.00,,,0.01,Wunderground v.1.15,2013-07-09 18:59:00,
2013-07-09 15:04:00,87.5,74.7,30.10,SSW,192,4.0,6.0,66,0.00,,,0.01,Wunderground v.1.15,2013-07-09 19:04:00,
2013-07-09 15:15:00,87.7,74.9,30.09,WSW,254,5.0,10.0,66,0.00,,,0.01,Wunderground v.1.15,2013-07-09 19:15:00,
2013-07-09 15:24:00,86.3,74.0,30.09,SSE,162,5.0,5.0,67,0.00,,,0.01,Wunderground v.1.15,2013-07-09 19:24:00,
2013-07-09 15:29:00,85.8,74.4,30.09,SW,220,6.0,8.0,69,0.00,,,0.01,Wunderground v.1.15,2013-07-09 19:29:00,
2013-07-09 15:39:00,86.0,75.1,30.08,SSW,198,6.0,7.0,70,0.00,,,0.01,Wunderground v.1.15,2013-07-09 19:39:00,
2013-07-09 15:44:00,85.9,75.0,30.08,South,180,5.0,7.0,70,0.00,,,0.01,Wunderground v.1.15,2013-07-09 19:44:00,
2013-07-09 15:55:00,85.3,74.8,30.08,South,175,6.0,6.0,71,0.00,,,0.01,Wunderground v.1.15,2013-07-09 19:55:00,
2013-07-09 16:04:00,85.0,74.5,30.08,SSW,194,6.0,11.0,71,0.00,,,0.01,Wunderground v.1.15,2013-07-09 20:04:00,
2013-07-09 16:09:00,85.1,74.6,30.08,SSW,203,5.0,11.0,71,0.00,,,0.01,Wunderground v.1.15,2013-07-09 20:09:00,
2013-07-09 16:20:00,85.1,74.2,30.08,South,184,6.0,6.0,70,0.00,,,0.01,Wunderground v.1.15,2013-07-09 20:20:00,
2013-07-09 16:29:00,85.2,74.3,30.08,SSE,157,5.0,8.0,70,0.00,,,0.01,Wunderground v.1.15,2013-07-09 20:29:00,
2013-07-09 16:34:00,85.0,74.1,30.08,SSW,204,6.0,9.0,70,0.00,,,0.01,Wunderground v.1.15,2013-07-09 20:34:00,
2013-07-09 16:44:00,84.6,74.2,30.08,SSW,202,7.0,10.0,71,0.00,,,0.01,Wunderground v.1.15,2013-07-09 20:44:00,
2013-07-09 16:55:00,84.5,74.1,30.08,SSW,195,6.0,7.0,71,0.00,,,0.01,Wunderground v.1.15,2013-07-09 20:55:00,
2013-07-09 17:04:00,84.7,73.8,30.08,South,189,6.0,7.0,70,0.00,,,0.01,Wunderground v.1.15,2013-07-09 21:04:00,
2013-07-09 17:10:00,84.9,73.6,30.08,SSW,198,6.0,11.0,69,0.00,,,0.01,Wunderground v.1.15,2013-07-09 21:10:00,
2013-07-09 17:19:00,84.9,73.6,30.07,South,188,7.0,7.0,69,0.00,,,0.01,Wunderground v.1.15,2013-07-09 21:19:00,
2013-07-09 17:24:00,84.3,73.4,30.07,South,189,7.0,7.0,70,0.00,,,0.01,Wunderground v.1.15,2013-07-09 21:24:00,
2013-07-09 17:34:00,83.7,72.9,30.07,South,184,7.0,8.0,70,0.00,,,0.01,Wunderground v.1.15,2013-07-09 21:34:00,
2013-07-09 17:44:00,84.1,73.7,30.07,SSW,200,5.0,6.0,71,0.00,,,0.01,Wunderground v.1.15,2013-07-09 21:44:00,
2013-07-09 17:55:00,83.9,73.9,30.07,SSE,161,5.0,7.0,72,0.00,,,0.01,Wunderground v.1.15,2013-07-09 21:55:00,
2013-07-09 18:04:00,84.0,73.6,30.07,SSW,201,6.0,8.0,71,0.00,,,0.01,Wunderground v.1.15,2013-07-09 22:04:00,
2013-07-09 18:09:00,83.8,73.4,30.06,SW,223,6.0,6.0,71,0.00,,,0.01,Wunderground v.1.15,2013-07-09 22:09:00,
2013-07-09 18:19:00,83.5,73.1,30.06,SSE,152,6.0,9.0,71,0.00,,,0.01,Wunderground v.1.15,2013-07-09 22:19:00,
2013-07-09 18:29:00,83.7,73.7,30.06,SSW,193,6.0,8.0,72,0.00,,,0.01,Wunderground v.1.15,2013-07-09 22:29:00,
2013-07-09 18:34:00,83.8,73.8,30.07,South,190,6.0,8.0,72,0.00,,,0.01,Wunderground v.1.15,2013-07-09 22:34:00,
2013-07-09 18:44:00,83.5,73.9,30.07,South,175,7.0,12.0,73,0.00,,,0.01,Wunderground v.1.15,2013-07-09 22:44:00,
2013-07-09 18:54:00,83.1,73.9,30.06,SSW,196,6.0,8.0,74,0.00,,,0.01,Wunderground v.1.15,2013-07-09 22:54:00,
2013-07-09 19:04:00,82.7,73.6,30.07,SSW,200,7.0,8.0,74,0.00,,,0.01,Wunderground v.1.15,2013-07-09 23:04:00,
2013-07-09 19:15:00,82.5,73.8,30.07,South,179,6.0,7.0,75,0.00,,,0.01,Wunderground v.1.15,2013-07-09 23:15:00,
2013-07-09 19:24:00,82.2,73.9,30.07,SSW,193,4.0,5.0,76,0.00,,,0.01,Wunderground v.1.15,2013-07-09 23:24:00,
2013-07-09 19:29:00,82.1,73.8,30.07,South,178,4.0,7.0,76,0.00,,,0.01,Wunderground v.1.15,2013-07-09 23:29:00,
2013-07-09 19:39:00,81.8,73.5,30.08,South,178,6.0,7.0,76,0.00,,,0.01,Wunderground v.1.15,2013-07-09 23:39:00,
2013-07-09 19:50:00,81.6,73.7,30.08,South,180,5.0,5.0,77,0.00,,,0.01,Wunderground v.1.15,2013-07-09 23:50:00,
2013-07-09 19:59:00,81.3,73.4,30.08,South,177,6.0,6.0,77,0.00,,,0.01,Wunderground v.1.15,2013-07-09 23:59:00,
2013-07-09 20:04:00,81.1,73.6,30.08,SSW,201,5.0,6.0,78,0.00,,,0.01,Wunderground v.1.15,2013-07-10 00:04:00,
2013-07-09 20:15:00,80.9,73.4,30.08,South,173,4.0,8.0,78,0.00,,,0.01,Wunderground v.1.15,2013-07-10 00:15:00,
2013-07-09 20:24:00,80.7,73.6,30.08,SSE,168,4.0,5.0,79,0.00,,,0.01,Wunderground v.1.15,2013-07-10 00:24:00,
2013-07-09 20:29:00,80.6,73.5,30.08,SSE,167,4.0,8.0,79,0.00,,,0.01,Wunderground v.1.15,2013-07-10 00:29:00,
2013-07-09 20:39:00,80.4,73.7,30.08,SSW,201,4.0,7.0,80,0.00,,,0.01,Wunderground v.1.15,2013-07-10 00:39:00,
2013-07-09 20:49:00,80.2,73.8,30.08,SSW,196,4.0,4.0,81,0.00,,,0.01,Wunderground v.1.15,2013-07-10 00:49:00,
2013-07-09 21:00:00,80.1,73.7,30.08,SW,217,3.0,3.0,81,0.00,,,0.01,Wunderground v.1.15,2013-07-10 01:00:00,
2013-07-09 21:09:00,80.0,73.6,30.09,SSW,196,3.0,7.0,81,0.00,,,0.01,Wunderground v.1.15,2013-07-10 01:09:00,
2013-07-09 21:14:00,80.0,73.6,30.09,SSW,199,3.0,7.0,81,0.00,,,0.01,Wunderground v.1.15,2013-07-10 01:14:00,
2013-07-09 21:24:00,79.9,73.5,30.09,South,174,4.0,4.0,81,0.00,,,0.01,Wunderground v.1.15,2013-07-10 01:24:00,
2013-07-09 21:34:00,79.8,73.8,30.09,SSW,212,4.0,5.0,82,0.00,,,0.01,Wunderground v.1.15,2013-07-10 01:34:00,
2013-07-09 21:45:00,79.8,73.8,30.08,SSW,200,6.0,7.0,82,0.00,,,0.01,Wunderground v.1.15,2013-07-10 01:45:00,
2013-07-09 21:54:00,79.7,73.7,30.08,SW,221,6.0,6.0,82,0.00,,,0.01,Wunderground v.1.15,2013-07-10 01:54:00,
2013-07-09 21:59:00,79.6,73.6,30.08,SSW,204,5.0,5.0,82,0.00,,,0.01,Wunderground v.1.15,2013-07-10 01:59:00,
2013-07-09 22:09:00,79.5,73.9,30.09,SSW,206,4.0,4.0,83,0.00,,,0.01,Wunderground v.1.15,2013-07-10 02:09:00,
2013-07-09 22:20:00,79.4,73.8,30.09,South,184,4.0,4.0,83,0.00,,,0.01,Wunderground v.1.15,2013-07-10 02:20:00,
2013-07-09 22:29:00,79.3,73.7,30.09,SSW,196,3.0,3.0,83,0.00,,,0.01,Wunderground v.1.15,2013-07-10 02:29:00,
2013-07-09 22:34:00,79.2,73.6,30.09,SSW,196,2.0,3.0,83,0.00,,,0.01,Wunderground v.1.15,2013-07-10 02:34:00,
2013-07-09 22:44:00,79.1,73.5,30.10,SW,215,3.0,4.0,83,0.00,,,0.01,Wunderground v.1.15,2013-07-10 02:44:00,
2013-07-09 22:54:00,79.1,73.5,30.09,SSW,200,4.0,5.0,83,0.00,,,0.01,Wunderground v.1.15,2013-07-10 02:54:00,
2013-07-09 23:05:00,79.0,73.4,30.10,South,188,3.0,4.0,83,0.00,,,0.01,Wunderground v.1.15,2013-07-10 03:05:00,
2013-07-09 23:14:00,78.9,73.7,30.10,SW,217,2.0,3.0,84,0.00,,,0.01,Wunderground v.1.15,2013-07-10 03:14:00,
2013-07-09 23:19:00,78.9,73.7,30.10,SW,217,2.0,3.0,84,0.00,,,0.01,Wunderground v.1.15,2013-07-10 03:19:00,
2013-07-09 23:29:00,78.8,73.6,30.10,SSW,195,3.0,3.0,84,0.00,,,0.01,Wunderground v.1.15,2013-07-10 03:29:00,
2013-07-09 23:39:00,78.7,73.8,30.10,SSW,209,3.0,3.0,85,0.00,,,0.01,Wunderground v.1.15,2013-07-10 03:39:00,
2013-07-09 23:50:00,78.6,73.7,30.10,SSW,202,3.0,3.0,85,0.00,,,0.01,Wunderground v.1.15,2013-07-10 03:50:00,